Regional Weather Roundup
Issued by NWS

Home | Current Version | Previous Version | Text Only | Print | Product List | Glossary Off
Versions: 1 2 3 4 5 6 7 8 9 10 11 12 13 14 15 16 17 18 19 20 21 22 23 24 25 26 27 28 29 30 31 32 33 34 35 36 37 38 39 40 41 42 43 44 45 46 47 48 49 50

000
ASUS43 KIND 250009
RWRIN

WEATHER ROUNDUP FOR INDIANA
NATIONAL WEATHER SERVICE INDIANAPOLIS IN
800 PM EDT SUN SEP 24 2017

NOTE: "FAIR" INDICATES FEW OR NO CLOUDS BELOW 12,000 FEET WITH NO
SIGNIFICANT WEATHER AND/OR OBSTRUCTIONS TO VISIBILITY.

* - STATION DOES NOT REPORT WEATHER SUCH AS PRECIPITATION OR FOG.

+ - STATION NOT QUALITY CONTROLLED BY THE NATIONAL WEATHER SERVICE.
    USE DATA WITH CAUTION...ESPECIALLY DEWPOINT AND RELATIVE
    HUMIDITY OBSERVATIONS.

INZ001>003-010>013-019-020-250100-
NORTHWEST INDIANA

CITY           SKY/WX    TMP DP  RH WIND       PRES   REMARKS
GARY /AIRPORT/ PTCLDY    77  63  61 E3        30.02S
KNOX *+        CLEAR     75  61  60 E3        30.02F
LA PORTE +     CLEAR     73  64  72 CALM      30.04S
6HR MIN TEMP:  73; 6HR MAX TEMP:  90;

MICHIGAN CITY+ CLEAR     77  59  53 CALM      30.03S
MONTICELLO +   CLEAR     80  56  44 CALM      30.01F
6HR MIN TEMP:  79; 6HR MAX TEMP:  91;

RENSSELAER +   CLEAR     81  45  28 E3        30.02S
VALPARAISO     CLEAR     82  57  42 SE5       30.03S
6HR MIN TEMP:  82; 6HR MAX TEMP:  93;


$$

LMZ046-743>745-250100-
SOUTHERN LAKE MICHIGAN

STATION/POSITION TIME  TEMP    WIND        PRES    WAVE
                       AIR SEA DIR/SP/G            HT
                 (UTC) (F)     (DEG/KT/KT) (MB)    (FT)
BURNS HARBOR     0000   74      CALM  /  9 1016.6
MICHIGAN CITY    2340   82      80/  5/  6   N/A
5NW MICH CITY    0000   75 73   70/  6/  8   N/A     1

$$

INZ004-005-014>016-021>024-250100-
NORTH CENTRAL INDIANA

CITY           SKY/WX    TMP DP  RH WIND       PRES   REMARKS
GOSHEN         CLEAR     75  59  57 E5        30.04F
6HR MIN TEMP:  75; 6HR MAX TEMP:  90;

LOGANSPORT +   CLEAR     73  55  53 CALM      30.04S
PERU/GRISSOM   CLEAR     79  58  48 E3        30.03S
6HR MIN TEMP:  79; 6HR MAX TEMP:  91;

SOUTH BEND     CLEAR     82  57  42 E6        30.04F
6HR MIN TEMP:  82; 6HR MAX TEMP:  90;

WARSAW +       CLEAR     75  61  60 CALM      30.04F

$$

INZ006>009-017-018-025>027-250100-
NORTHEAST INDIANA

CITY           SKY/WX    TMP DP  RH WIND       PRES   REMARKS
AUBURN +       CLEAR     73  61  64 CALM      30.06F
FORT WAYNE     PTCLDY    78  59  51 SE6       30.06S
6HR MIN TEMP:  78; 6HR MAX TEMP:  89;

HUNTINGTON +   CLEAR     77  55  46 S3        30.04S
6HR MIN TEMP:  77; 6HR MAX TEMP:  91;

KENDALLVILLE + CLEAR     73  67  79 CALM      30.07S

$$

INZ028-029-035-036-043>045-051>053-250100-
WEST CENTRAL INDIANA

CITY           SKY/WX    TMP DP  RH WIND       PRES   REMARKS
GREENCASTLE +  CLEAR     77  54  44 CALM      30.03S
LAFAYETTE      CLEAR     76  60  57 E3        30.00F
6HR MIN TEMP:  76; 6HR MAX TEMP:  89;

TERRE HAUTE    CLEAR     79  58  48 E5        30.00S
6HR MIN TEMP:  79; 6HR MAX TEMP:  93;


$$

INZ030>032-037>040-046>048-054>057-064-065-250100-
CENTRAL INDIANA

CITY           SKY/WX    TMP DP  RH WIND       PRES   REMARKS
CP ATTERBURY + CLEAR     73  61  64 CALM      30.04S
COLUMBUS       CLEAR     81  50  34 CALM      30.03S
FRANKFORT +    CLOUDY    77  61  57 SE6       30.05S
6HR MIN TEMP:  77; 6HR MAX TEMP:  94;

INDIANAPOLIS   PTCLDY    82  56  40 SE7       30.03S
6HR MIN TEMP:  82; 6HR MAX TEMP:  92;

-EAGLE CREEK   CLEAR     83  53  35 SE5       30.02S
6HR MIN TEMP:  83; 6HR MAX TEMP:  91;

KOKOMO +       CLEAR     77  56  48 SE8       30.05S
6HR MIN TEMP:  76; 6HR MAX TEMP:  89;

MARION +       CLEAR     75  57  53 S5        30.05S
MT COMFORT *+  CLEAR     79  55  44 SE3       30.05S
SHELBYVILLE    CLEAR     77  57  50 E7        30.03S
6HR MIN TEMP:  77; 6HR MAX TEMP:  93;

ZIONSVILLE +     N/A     75  60  59 MISG        N/A

$$

INZ033-034-041-042-049-050-058-059-250100-
EAST CENTRAL INDIANA

CITY           SKY/WX    TMP DP  RH WIND       PRES   REMARKS
MUNCIE         CLEAR     70  61  73 CALM      30.06S
6HR MIN TEMP:  70; 6HR MAX TEMP:  92;

RICHMOND +     CLEAR     72  52  49 SE6       30.08S

$$

INZ060-061-067>069-081>083-085>088-250100-
SOUTHWEST INDIANA

CITY           SKY/WX    TMP DP  RH WIND       PRES   REMARKS
EVANSVILLE     CLEAR     82  63  52 CALM      29.99R
6HR MIN TEMP:  82; 6HR MAX TEMP:  90;

HUNTINGBURG +  PTCLDY    81  67  62 MISG      30.00S
6HR MIN TEMP:  81; 6HR MAX TEMP:  89;

WASHINGTON +   CLEAR     78  56  46 CALM      30.00R
6HR MIN TEMP:  78; 6HR MAX TEMP:  92;


$$

INZ062-063-066-070>080-084-089>092-250100-
SOUTH CENTRAL AND SOUTHEAST INDIANA

CITY           SKY/WX    TMP DP  RH WIND       PRES   REMARKS
BLOOMINGTON    CLEAR     75  57  53 CALM      30.03R
6HR MIN TEMP:  75; 6HR MAX TEMP:  91;

MADISON *+     PTCLDY    72  61  68 CALM      30.05F
NORTH VERNON + PTCLDY    68  64  88 CALM      30.05S
SEYMOUR +      PTCLDY    79  59  50 CALM      30.02S

$$





USA.gov is the U.S. government's official web portal to all federal, state and local government web resources and services.